| time (UTC) | temp F | wind direction | speed MPH | gust MPH | rain 1hr in | rain 24hr in | rain mn in | humidity % | barometer mb |
| 20260508054439 | 54 | 216 | 0.0 | 0.0 | 0.00 | 0.00 | 0.00 | 95 | 1013.0 |
| 20260508053936 | 53 | 214 | 0.0 | 0.0 | 0.00 | 0.00 | 0.00 | 95 | 1012.7 |
| 20260508053433 | 53 | 213 | 0.0 | 0.0 | 0.00 | 0.00 | 0.00 | 95 | 1013.0 |
| 20260508052931 | 53 | 213 | 0.0 | 0.0 | 0.00 | 0.00 | 0.00 | 95 | 1013.0 |
| 20260508052428 | 54 | 213 | 0.0 | 0.0 | 0.00 | 0.00 | 0.00 | 95 | 1013.1 |
| 20260508051924 | 54 | 213 | 0.0 | 0.0 | 0.00 | 0.00 | 0.00 | 95 | 1012.7 |
| 20260508051420 | 54 | 213 | 0.0 | 0.0 | 0.00 | 0.00 | 0.00 | 95 | 1012.6 |
| 20260508050916 | 54 | 213 | 0.0 | 0.0 | 0.00 | 0.00 | 0.00 | 95 | 1012.6 |
| 20260508050413 | 54 | 213 | 0.0 | 0.0 | 0.00 | 0.00 | 0.00 | 95 | 1012.6 |
| 20260508045909 | 54 | 213 | 0.0 | 0.0 | 0.00 | 0.00 | 0.00 | 95 | 1012.8 |
| 20260508045407 | 54 | 213 | 0.0 | 0.0 | 0.00 | 0.00 | 0.00 | 95 | 1012.8 |
| 20260508044904 | 54 | 213 | 0.0 | 0.0 | 0.00 | 0.00 | 0.00 | 95 | 1012.7 |
| 20260508044401 | 55 | 213 | 0.0 | 0.0 | 0.00 | 0.00 | 0.00 | 95 | 1012.7 |
| 20260508043857 | 55 | 213 | 0.0 | 0.0 | 0.00 | 0.00 | 0.00 | 95 | 1012.5 |
| 20260508043354 | 55 | 213 | 0.0 | 0.0 | 0.00 | 0.00 | 0.00 | 95 | 1012.5 |
| 20260508042851 | 54 | 214 | 0.0 | 0.0 | 0.00 | 0.00 | 0.00 | 95 | 1012.8 |
| 20260508042349 | 55 | 214 | 0.0 | 0.0 | 0.00 | 0.00 | 0.00 | 95 | 1012.5 |
| 20260508041845 | 55 | 214 | 0.0 | 0.0 | 0.00 | 0.00 | 0.00 | 95 | 1012.6 |
| 20260508041341 | 55 | 212 | 0.0 | 0.0 | 0.00 | 0.00 | 0.00 | 95 | 1012.6 |
| 20260508040837 | 55 | 220 | 0.0 | 0.0 | 0.00 | 0.00 | 0.00 | 95 | 1012.8 |
| 20260508040335 | 55 | 214 | 0.0 | 0.0 | 0.00 | 0.00 | 0.00 | 95 | 1012.6 |
| 20260508035832 | 55 | 190 | 0.0 | 0.0 | 0.00 | 1.90 | 1.90 | 95 | 1012.7 |
| 20260508035329 | 55 | 209 | 0.0 | 0.0 | 0.00 | 1.90 | 1.90 | 95 | 1012.8 |
| 20260508034826 | 55 | 220 | 0.0 | 0.0 | 0.00 | 1.90 | 1.90 | 95 | 1012.5 |
| 20260508034324 | 55 | 216 | 0.0 | 0.0 | 0.00 | 1.90 | 1.90 | 95 | 1012.4 |
| 20260508033820 | 55 | 225 | 0.0 | 0.0 | 0.00 | 1.90 | 1.90 | 95 | 1012.2 |
| 20260508033319 | 55 | 218 | 0.0 | 0.0 | 0.00 | 1.90 | 1.90 | 95 | 1012.2 |
| 20260508032816 | 55 | 210 | 0.0 | 0.0 | 0.00 | 1.90 | 1.90 | 95 | 1011.9 |
| 20260508032313 | 55 | 210 | 0.0 | 0.0 | 0.00 | 1.90 | 1.90 | 95 | 1011.8 |
| 20260508031810 | 55 | 211 | 0.0 | 0.0 | 0.00 | 1.90 | 1.90 | 95 | 1011.9 |
| 20260508031307 | 55 | 214 | 0.0 | 0.0 | 0.00 | 1.90 | 1.90 | 95 | 1012.1 |
| 20260508030803 | 55 | 176 | 0.0 | 0.0 | 0.00 | 1.90 | 1.90 | 95 | 1011.8 |
| 20260508030300 | 55 | 211 | 0.0 | 0.0 | 0.00 | 1.90 | 1.90 | 95 | 1011.9 |
| 20260508025757 | 55 | 211 | 0.0 | 0.0 | 0.00 | 1.90 | 1.90 | 95 | 1011.9 |
| 20260508025254 | 55 | 211 | 0.0 | 0.0 | 0.00 | 1.90 | 1.90 | 95 | 1011.6 |
| 20260508024750 | 54 | 197 | 0.0 | 0.0 | 0.00 | 1.90 | 1.90 | 95 | 1011.7 |
| 20260508024247 | 54 | 197 | 0.0 | 0.0 | 0.00 | 1.90 | 1.90 | 95 | 1011.7 |
| 20260508023744 | 54 | 197 | 0.0 | 0.0 | 0.00 | 1.90 | 1.90 | 95 | 1011.8 |
| 20260508023241 | 0 | 0.0 | 0.0 | 0.00 | 0.00 | 0.00 | 1011.6 | ||
| 20260508022737 | 55 | 214 | 0.0 | 0.0 | 0.00 | 1.90 | 1.90 | 95 | 1011.6 |
| 20260508022234 | 55 | 214 | 0.0 | 0.0 | 0.00 | 1.90 | 1.90 | 95 | 1011.5 |
| 20260508021731 | 55 | 214 | 0.0 | 0.0 | 0.00 | 1.90 | 1.90 | 95 | 1011.4 |
| 20260508021226 | 55 | 215 | 0.0 | 0.0 | 0.00 | 1.90 | 1.90 | 95 | 1011.3 |
| 20260508020723 | 55 | 234 | 1.0 | 1.0 | 0.00 | 1.90 | 1.90 | 95 | 1011.3 |
| 20260508020220 | 55 | 151 | 1.0 | 1.0 | 0.00 | 1.90 | 1.90 | 95 | 1011.0 |
| 20260508015718 | 55 | 151 | 1.0 | 1.0 | 0.00 | 1.90 | 1.90 | 95 | 1011.1 |
| 20260508015215 | 0 | 0.0 | 0.0 | 0.00 | 0.00 | 0.00 | 1011.3 | ||
| 20260508014711 | 0 | 0.0 | 0.0 | 0.00 | 0.00 | 0.00 | 1011.1 | ||
| 20260508014208 | 0 | 0.0 | 0.0 | 0.00 | 0.00 | 0.00 | 1011.3 | ||
| 20260508013704 | 0 | 0.0 | 0.0 | 0.00 | 0.00 | 0.00 | 1011.0 | ||
| 20260508013201 | 0 | 0.0 | 0.0 | 0.00 | 0.00 | 0.00 | 1011.0 | ||
| 20260508012658 | 55 | 191 | 0.0 | 0.0 | 0.00 | 1.90 | 1.90 | 95 | 1010.8 |
| 20260508012155 | 55 | 191 | 0.0 | 0.0 | 0.00 | 1.90 | 1.90 | 95 | 1010.8 |
| 20260508011653 | 55 | 167 | 0.0 | 1.0 | 0.00 | 1.90 | 1.90 | 95 | 1010.7 |
| 20260508011150 | 55 | 142 | 0.0 | 0.0 | 0.00 | 1.90 | 1.90 | 95 | 1010.4 |
| 20260508010647 | 55 | 184 | 0.0 | 0.0 | 0.00 | 1.90 | 1.90 | 95 | 1010.3 |
| 20260508010145 | 55 | 88 | 1.0 | 2.0 | 0.00 | 1.90 | 1.90 | 95 | 1010.2 |
| 20260508005642 | 55 | 188 | 0.0 | 0.0 | 0.00 | 1.90 | 1.90 | 95 | 1010.5 |
| 20260508005138 | 55 | 194 | 0.0 | 0.0 | 0.07 | 1.90 | 1.90 | 95 | 1010.3 |
| 20260508004634 | 55 | 157 | 1.0 | 1.0 | 0.07 | 1.90 | 1.90 | 95 | 1010.2 |
| 20260508004131 | 55 | 219 | 0.0 | 0.0 | 0.00 | 1.89 | 1.89 | 95 | 1010.6 |
| 20260508003627 | 55 | 184 | 0.0 | 0.0 | 0.12 | 1.89 | 1.89 | 95 | 1010.5 |
| 20260508003125 | 55 | 190 | 0.0 | 0.0 | 0.28 | 1.89 | 1.89 | 95 | 1010.6 |
| 20260508002621 | 55 | 190 | 0.0 | 0.0 | 0.47 | 1.87 | 1.87 | 95 | 1010.3 |
| 20260508002120 | 55 | 106 | 2.0 | 2.0 | 0.71 | 1.83 | 1.83 | 95 | 1010.5 |
| 20260508001614 | 55 | 210 | 0.0 | 0.0 | 1.18 | 1.78 | 1.78 | 95 | 1010.9 |
| 20260508001110 | 55 | 210 | 0.0 | 0.0 | 0.85 | 1.71 | 1.71 | 94 | 1010.3 |
| 20260508000606 | 55 | 152 | 1.0 | 2.0 | 0.12 | 1.58 | 1.58 | 94 | 1010.2 |
| 20260508000104 | 55 | 228 | 1.0 | 1.0 | 0.05 | 1.57 | 1.57 | 94 | 1009.8 |
| 20260507235601 | 55 | 125 | 1.0 | 1.0 | 0.00 | 1.56 | 1.56 | 94 | 1009.3 |
| 20260507235058 | 55 | 189 | 0.0 | 0.0 | 0.00 | 1.56 | 1.56 | 94 | 1008.9 |
| 20260507234554 | 55 | 134 | 1.0 | 1.0 | 0.00 | 1.56 | 1.56 | 94 | 1009.1 |
| 20260507234051 | 55 | 175 | 1.0 | 1.0 | 0.00 | 1.56 | 1.56 | 94 | 1009.0 |
| 20260507233547 | 56 | 184 | 1.0 | 2.0 | 0.00 | 1.56 | 1.56 | 94 | 1009.0 |
| 20260507233047 | 56 | 204 | 0.0 | 0.0 | 0.00 | 1.56 | 1.56 | 93 | 1009.3 |
| 20260507232542 | 55 | 168 | 0.0 | 1.0 | 0.00 | 1.56 | 1.56 | 93 | 1009.5 |
| 20260507232039 | 56 | 94 | 4.0 | 5.0 | 0.00 | 1.56 | 1.56 | 93 | 1009.3 |
| 20260507231536 | 56 | 162 | 1.0 | 1.0 | 0.00 | 1.56 | 1.56 | 93 | 1009.7 |
| 20260507231033 | 56 | 103 | 2.0 | 2.0 | 0.00 | 1.56 | 1.56 | 93 | 1009.2 |
| 20260507230530 | 56 | 143 | 2.0 | 2.0 | 0.00 | 1.56 | 1.56 | 93 | 1009.0 |
| 20260507230027 | 56 | 171 | 0.0 | 0.0 | 0.00 | 1.56 | 1.56 | 93 | 1009.1 |
| 20260507225521 | 56 | 115 | 1.0 | 2.0 | 0.00 | 1.56 | 1.56 | 93 | 1009.1 |
| 20260507225018 | 56 | 281 | 1.0 | 2.0 | 0.00 | 1.56 | 1.56 | 93 | 1009.2 |
| 20260507224514 | 56 | 202 | 0.0 | 0.0 | 0.00 | 1.56 | 1.56 | 93 | 1008.9 |
| 20260507224010 | 56 | 69 | 3.0 | 3.0 | 0.00 | 1.56 | 1.56 | 93 | 1008.9 |
| 20260507223507 | 56 | 206 | 1.0 | 1.0 | 0.00 | 1.56 | 1.56 | 93 | 1009.0 |
| 20260507223004 | 56 | 83 | 4.0 | 6.0 | 0.00 | 1.56 | 1.56 | 92 | 1008.8 |
| 20260507222501 | 56 | 126 | 5.0 | 6.0 | 0.00 | 1.56 | 1.56 | 93 | 1008.8 |
| 20260507221957 | 56 | 85 | 3.0 | 5.0 | 0.00 | 1.56 | 1.56 | 93 | 1008.9 |
| 20260507221454 | 56 | 61 | 3.0 | 3.0 | 0.00 | 1.56 | 1.56 | 93 | 1008.6 |
| 20260507220950 | 56 | 178 | 0.0 | 0.0 | 0.00 | 1.56 | 1.56 | 94 | 1008.8 |
| 20260507220448 | 55 | 225 | 1.0 | 1.0 | 0.00 | 1.56 | 1.56 | 93 | 1008.7 |
| 20260507215944 | 55 | 191 | 0.0 | 0.0 | 0.00 | 1.56 | 1.56 | 94 | 1008.9 |
| 20260507215441 | 55 | 73 | 2.0 | 2.0 | 0.00 | 1.56 | 1.56 | 94 | 1008.8 |
| 20260507214939 | 55 | 70 | 2.0 | 3.0 | 0.00 | 1.56 | 1.56 | 94 | 1009.4 |
| 20260507214436 | 55 | 72 | 2.0 | 3.0 | 0.00 | 1.56 | 1.56 | 94 | 1008.9 |
| 20260507213932 | 55 | 76 | 3.0 | 6.0 | 0.00 | 1.56 | 1.56 | 95 | 1008.9 |
| 20260507213428 | 55 | 39 | 4.0 | 6.0 | 0.00 | 1.56 | 1.56 | 95 | 1008.5 |
| 20260507212925 | 55 | 108 | 2.0 | 3.0 | 0.00 | 1.56 | 1.56 | 95 | 1008.7 |
| 20260507212421 | 55 | 182 | 1.0 | 2.0 | 0.00 | 1.56 | 1.56 | 95 | 1008.7 |
| 20260507211918 | 55 | 314 | 3.0 | 5.0 | 0.00 | 1.56 | 1.56 | 95 | 1008.8 |
| 20260507211415 | 56 | 106 | 2.0 | 2.0 | 0.00 | 1.56 | 1.56 | 95 | 1008.5 |
| 20260507210911 | 56 | 184 | 1.0 | 2.0 | 0.00 | 1.56 | 1.56 | 95 | 1008.3 |
| 20260507210408 | 56 | 322 | 4.0 | 6.0 | 0.00 | 1.56 | 1.56 | 95 | 1008.3 |
| 20260507205905 | 56 | 128 | 2.0 | 2.0 | 0.00 | 1.56 | 1.56 | 95 | 1008.3 |
| 20260507205403 | 57 | 333 | 5.0 | 8.0 | 0.00 | 1.56 | 1.56 | 95 | 1008.1 |
| 20260507204858 | 57 | 72 | 3.0 | 5.0 | 0.00 | 1.56 | 1.56 | 95 | 1008.1 |
| 20260507204355 | 57 | 46 | 5.0 | 7.0 | 0.00 | 1.56 | 1.56 | 95 | 1008.0 |
| 20260507203853 | 57 | 300 | 5.0 | 7.0 | 0.00 | 1.56 | 1.56 | 95 | 1008.0 |
| 20260507203351 | 58 | 334 | 3.0 | 5.0 | 0.00 | 1.56 | 1.56 | 95 | 1008.0 |
| 20260507202846 | 58 | 108 | 4.0 | 7.0 | 0.00 | 1.56 | 1.56 | 95 | 1007.6 |
| 20260507202343 | 57 | 135 | 1.0 | 2.0 | 0.00 | 1.56 | 1.56 | 95 | 1007.6 |
| 20260507201838 | 57 | 181 | 1.0 | 1.0 | 0.00 | 1.56 | 1.56 | 95 | 1007.8 |
| 20260507201334 | 57 | 57 | 3.0 | 3.0 | 0.00 | 1.56 | 1.56 | 95 | 1008.1 |
| 20260507200831 | 57 | 209 | 2.0 | 5.0 | 0.00 | 1.56 | 1.56 | 95 | 1007.9 |
| 20260507200327 | 58 | 273 | 3.0 | 3.0 | 0.00 | 1.56 | 1.56 | 95 | 1008.3 |
| 20260507195823 | 58 | 33 | 3.0 | 3.0 | 0.00 | 1.56 | 1.56 | 95 | 1007.9 |
| 20260507195320 | 58 | 23 | 4.0 | 6.0 | 0.00 | 1.56 | 1.56 | 95 | 1007.9 |
| 20260507194818 | 58 | 340 | 2.0 | 3.0 | 0.00 | 1.56 | 1.56 | 95 | 1008.0 |
| 20260507194314 | 58 | 323 | 5.0 | 6.0 | 0.00 | 1.56 | 1.56 | 95 | 1007.5 |
| 20260507193810 | 58 | 326 | 1.0 | 3.0 | 0.00 | 1.56 | 1.56 | 95 | 1007.7 |
| 20260507193308 | 58 | 132 | 1.0 | 2.0 | 0.07 | 1.56 | 1.56 | 95 | 1007.7 |
| 20260507192803 | 59 | 263 | 2.0 | 3.0 | 0.61 | 1.56 | 1.56 | 95 | 1007.8 |
| 20260507192300 | 59 | 116 | 5.0 | 6.0 | 0.59 | 1.55 | 1.55 | 95 | 1007.7 |
| 20260507191756 | 59 | 72 | 2.0 | 2.0 | 0.12 | 1.46 | 1.46 | 95 | 1007.7 |
| 20260507191253 | 59 | 271 | 2.0 | 5.0 | 0.07 | 1.45 | 1.45 | 95 | 1007.8 |
| 20260507190750 | 59 | 318 | 7.0 | 8.0 | 0.00 | 1.44 | 1.44 | 95 | 1007.7 |
| 20260507190249 | 59 | 299 | 3.0 | 3.0 | 0.00 | 1.44 | 1.44 | 95 | 1007.9 |
| 20260507185747 | 60 | 309 | 3.0 | 3.0 | 0.00 | 1.44 | 1.44 | 95 | 1007.4 |
| 20260507185243 | 60 | 149 | 5.0 | 6.0 | 0.00 | 1.44 | 1.44 | 95 | 1007.4 |
| 20260507184741 | 61 | 55 | 4.0 | 6.0 | 0.00 | 1.44 | 1.44 | 95 | 1006.7 |
| 20260507184239 | 62 | 342 | 5.0 | 6.0 | 0.00 | 1.44 | 1.44 | 95 | 1007.2 |
| 20260507183735 | 62 | 196 | 0.0 | 1.0 | 0.00 | 1.44 | 1.44 | 95 | 1007.4 |
| 20260507183232 | 63 | 303 | 2.0 | 2.0 | 0.00 | 1.44 | 1.44 | 95 | 1007.5 |
| 20260507182729 | 64 | 145 | 3.0 | 5.0 | 0.00 | 1.44 | 1.44 | 95 | 1007.8 |
| 20260507182224 | 65 | 313 | 5.0 | 7.0 | 0.00 | 1.44 | 1.44 | 95 | 1007.5 |
| 20260507181721 | 65 | 201 | 1.0 | 1.0 | 0.00 | 1.44 | 1.44 | 95 | 1006.7 |
| 20260507181218 | 68 | 324 | 6.0 | 9.0 | 0.00 | 1.44 | 1.44 | 95 | 1006.6 |
| 20260507180714 | 70 | 208 | 0.0 | 0.0 | 0.00 | 1.44 | 1.44 | 95 | 1007.0 |
| 20260507180212 | 69 | 210 | 0.0 | 0.0 | 0.00 | 1.44 | 1.44 | 95 | 1006.7 |
| 20260507175707 | 70 | 226 | 1.0 | 2.0 | 0.00 | 1.44 | 1.44 | 95 | 1007.1 |
| 20260507175204 | 69 | 220 | 1.0 | 1.0 | 0.00 | 1.44 | 1.44 | 95 | 1007.1 |
| 20260507174702 | 69 | 213 | 1.0 | 1.0 | 0.00 | 1.44 | 1.44 | 95 | 1007.3 |
| 20260507174159 | 69 | 213 | 1.0 | 1.0 | 0.00 | 1.44 | 1.44 | 95 | 1007.3 |
| 20260507173656 | 69 | 220 | 0.0 | 1.0 | 0.00 | 1.44 | 1.44 | 95 | 1007.4 |
| 20260507173154 | 69 | 210 | 0.0 | 1.0 | 0.00 | 1.44 | 1.44 | 95 | 1007.1 |
| 20260507172650 | 69 | 225 | 1.0 | 2.0 | 0.00 | 1.44 | 1.44 | 95 | 1007.2 |
| 20260507172147 | 69 | 209 | 0.0 | 0.0 | 0.00 | 1.44 | 1.44 | 95 | 1006.9 |
| 20260507171647 | 69 | 214 | 1.0 | 1.0 | 0.00 | 1.44 | 1.44 | 95 | 1006.7 |
| 20260507171144 | 69 | 205 | 0.0 | 0.0 | 0.00 | 1.44 | 1.44 | 95 | 1006.9 |
| 20260507170641 | 69 | 190 | 0.0 | 1.0 | 0.00 | 1.44 | 1.44 | 95 | 1007.0 |
| 20260507170139 | 69 | 212 | 0.0 | 0.0 | 0.00 | 1.44 | 1.44 | 95 | 1006.9 |
| 20260507165634 | 69 | 224 | 0.0 | 0.0 | 0.00 | 1.44 | 1.44 | 95 | 1006.7 |
| 20260507165131 | 69 | 187 | 0.0 | 0.0 | 0.05 | 1.44 | 1.44 | 95 | 1007.1 |
| 20260507164627 | 69 | 205 | 0.0 | 0.0 | 0.05 | 1.44 | 1.44 | 95 | 1007.1 |
| 20260507164124 | 68 | 206 | 0.0 | 0.0 | 0.00 | 1.43 | 1.43 | 95 | 1007.6 |
| 20260507163621 | 68 | 208 | 0.0 | 0.0 | 0.00 | 1.43 | 1.43 | 95 | 1007.5 |
| 20260507163119 | 68 | 220 | 0.0 | 1.0 | 0.00 | 1.43 | 1.43 | 95 | 1007.7 |
| 20260507162614 | 68 | 220 | 0.0 | 0.0 | 0.00 | 1.43 | 1.43 | 95 | 1007.9 |
| 20260507162111 | 68 | 211 | 1.0 | 1.0 | 0.00 | 1.43 | 1.43 | 95 | 1008.0 |
| 20260507161607 | 68 | 227 | 1.0 | 2.0 | 0.00 | 1.43 | 1.43 | 95 | 1008.4 |
| 20260507161104 | 68 | 216 | 0.0 | 0.0 | 0.00 | 1.43 | 1.43 | 95 | 1008.4 |
| 20260507160600 | 68 | 218 | 0.0 | 1.0 | 0.00 | 1.43 | 1.43 | 95 | 1008.5 |
| 20260507160056 | 68 | 250 | 0.0 | 1.0 | 0.00 | 1.43 | 1.43 | 95 | 1008.6 |
| 20260507155552 | 68 | 216 | 1.0 | 1.0 | 0.00 | 1.43 | 1.43 | 95 | 1008.9 |
| 20260507155049 | 68 | 207 | 0.0 | 0.0 | 0.00 | 1.43 | 1.43 | 95 | 1008.5 |
| 20260507154546 | 68 | 211 | 0.0 | 0.0 | 0.00 | 1.43 | 1.43 | 95 | 1008.3 |
| 20260507154043 | 68 | 211 | 0.0 | 0.0 | 0.00 | 1.43 | 1.43 | 95 | 1007.9 |
| 20260507153540 | 68 | 210 | 0.0 | 0.0 | 0.00 | 1.43 | 1.43 | 95 | 1007.7 |
| 20260507153036 | 68 | 188 | 0.0 | 0.0 | 0.00 | 1.43 | 1.43 | 95 | 1007.7 |
| 20260507152532 | 68 | 212 | 0.0 | 0.0 | 0.00 | 1.43 | 1.43 | 95 | 1008.2 |
| 20260507152029 | 68 | 209 | 0.0 | 0.0 | 0.00 | 1.43 | 1.43 | 95 | 1008.2 |
| 20260507151525 | 67 | 209 | 0.0 | 0.0 | 0.07 | 1.43 | 1.43 | 95 | 1007.9 |
| 20260507151022 | 67 | 219 | 0.0 | 1.0 | 0.14 | 1.43 | 1.43 | 95 | 1007.9 |
| 20260507150519 | 67 | 209 | 0.0 | 0.0 | 0.05 | 1.41 | 1.41 | 95 | 1008.2 |
| 20260507150015 | 67 | 231 | 1.0 | 1.0 | 0.17 | 1.41 | 1.41 | 95 | 1008.3 |
| 20260507145510 | 67 | 219 | 1.0 | 2.0 | 0.19 | 1.40 | 1.40 | 95 | 1008.5 |
| 20260507145009 | 67 | 199 | 0.0 | 0.0 | 0.31 | 1.38 | 1.38 | 95 | 1008.4 |
| 20260507144505 | 67 | 243 | 2.0 | 3.0 | 0.47 | 1.37 | 1.37 | 95 | 1008.6 |
| 20260507144002 | 67 | 215 | 0.0 | 0.0 | 0.66 | 1.33 | 1.33 | 95 | 1008.7 |
| 20260507143459 | 67 | 208 | 1.0 | 1.0 | 0.61 | 1.27 | 1.27 | 95 | 1008.8 |
| 20260507142956 | 67 | 212 | 0.0 | 0.0 | 1.09 | 1.22 | 1.22 | 95 | 1008.6 |
| 20260507142452 | 67 | 204 | 0.0 | 0.0 | 0.83 | 1.13 | 1.13 | 95 | 1008.4 |
| 20260507141949 | 67 | 209 | 0.0 | 1.0 | 0.47 | 1.04 | 1.04 | 95 | 1008.7 |
| 20260507141445 | 67 | 214 | 1.0 | 1.0 | 0.78 | 0.99 | 0.99 | 95 | 1008.7 |
| 20260507140942 | 67 | 228 | 0.0 | 1.0 | 1.32 | 0.96 | 0.96 | 95 | 1009.0 |
| 20260507140438 | 67 | 228 | 1.0 | 1.0 | 1.02 | 0.86 | 0.86 | 95 | 1009.0 |
| 20260507135936 | 67 | 194 | 0.0 | 1.0 | 0.28 | 0.74 | 0.74 | 95 | 1009.1 |
| 20260507135433 | 67 | 214 | 0.0 | 0.0 | 0.07 | 0.69 | 0.69 | 95 | 1008.9 |
| 20260507134930 | 67 | 222 | 0.0 | 1.0 | 0.07 | 0.69 | 0.69 | 95 | 1008.9 |
| 20260507134426 | 67 | 206 | 0.0 | 0.0 | 0.00 | 0.68 | 0.68 | 95 | 1008.9 |
| 20260507133922 | 67 | 202 | 0.0 | 0.0 | 0.00 | 0.68 | 0.68 | 95 | 1008.7 |
| 20260507133418 | 67 | 215 | 0.0 | 1.0 | 0.00 | 0.68 | 0.68 | 95 | 1008.9 |
| 20260507132911 | 68 | 211 | 0.0 | 1.0 | 0.00 | 0.68 | 0.68 | 95 | 1008.9 |
| 20260507132407 | 68 | 205 | 0.0 | 0.0 | 0.00 | 0.68 | 0.68 | 95 | 1009.0 |
| 20260507131906 | 68 | 205 | 0.0 | 0.0 | 0.00 | 0.68 | 0.68 | 95 | 1008.8 |
| 20260507131401 | 68 | 208 | 0.0 | 0.0 | 0.00 | 0.68 | 0.68 | 95 | 1009.0 |
| 20260507130858 | 68 | 211 | 0.0 | 0.0 | 0.00 | 0.68 | 0.68 | 95 | 1009.0 |
| 20260507130354 | 68 | 210 | 0.0 | 0.0 | 0.00 | 0.68 | 0.68 | 95 | 1008.6 |
| 20260507125854 | 67 | 206 | 0.0 | 0.0 | 0.00 | 0.68 | 0.68 | 95 | 1008.6 |
| 20260507125350 | 67 | 210 | 0.0 | 0.0 | 0.00 | 0.68 | 0.68 | 95 | 1008.6 |
| 20260507124848 | 67 | 336 | 0.0 | 1.0 | 0.00 | 0.68 | 0.68 | 95 | 1008.8 |
| 20260507124344 | 67 | 210 | 0.0 | 0.0 | 0.00 | 0.68 | 0.68 | 95 | 1008.8 |
| 20260507123843 | 67 | 206 | 0.0 | 0.0 | 0.00 | 0.68 | 0.68 | 95 | 1008.7 |
| 20260507123339 | 67 | 220 | 0.0 | 0.0 | 0.00 | 0.68 | 0.68 | 95 | 1008.8 |
| 20260507122836 | 67 | 126 | 0.0 | 0.0 | 0.00 | 0.68 | 0.68 | 95 | 1009.0 |
| 20260507122331 | 67 | 206 | 0.0 | 0.0 | 0.00 | 0.68 | 0.68 | 95 | 1008.8 |
| 20260507121828 | 67 | 207 | 0.0 | 0.0 | 0.00 | 0.68 | 0.68 | 95 | 1009.0 |
| 20260507121323 | 67 | 205 | 0.0 | 0.0 | 0.00 | 0.68 | 0.68 | 95 | 1009.0 |
| 20260507120820 | 67 | 203 | 0.0 | 0.0 | 0.00 | 0.68 | 0.68 | 95 | 1008.9 |
| 20260507120316 | 67 | 198 | 0.0 | 0.0 | 0.00 | 0.68 | 0.68 | 95 | 1009.2 |
| 20260507115813 | 66 | 199 | 0.0 | 0.0 | 0.00 | 0.68 | 0.68 | 95 | 1009.3 |
| 20260507115308 | 66 | 174 | 0.0 | 0.0 | 0.00 | 0.68 | 0.68 | 95 | 1009.2 |
| 20260507114804 | 66 | 76 | 0.0 | 0.0 | 0.00 | 0.68 | 0.68 | 95 | 1009.2 |
| 20260507114302 | 66 | 199 | 0.0 | 0.0 | 0.00 | 0.68 | 0.68 | 95 | 1009.4 |
| 20260507113759 | 66 | 212 | 0.0 | 0.0 | 0.00 | 0.68 | 0.68 | 95 | 1009.5 |
| 20260507113256 | 66 | 212 | 0.0 | 0.0 | 0.00 | 0.68 | 0.68 | 95 | 1009.5 |
| 20260507112754 | 66 | 213 | 0.0 | 0.0 | 0.00 | 0.68 | 0.68 | 95 | 1009.5 |
| 20260507112250 | 66 | 214 | 0.0 | 1.0 | 0.00 | 0.68 | 0.68 | 95 | 1009.5 |
| 20260507111748 | 66 | 209 | 0.0 | 0.0 | 0.00 | 0.68 | 0.68 | 95 | 1009.3 |
| 20260507111244 | 66 | 204 | 0.0 | 0.0 | 0.00 | 0.68 | 0.68 | 95 | 1009.5 |
| 20260507110741 | 66 | 202 | 0.0 | 0.0 | 0.00 | 0.68 | 0.68 | 95 | 1009.6 |
| 20260507110237 | 66 | 214 | 0.0 | 0.0 | 0.00 | 0.68 | 0.68 | 95 | 1009.6 |
| 20260507105734 | 66 | 204 | 0.0 | 0.0 | 0.00 | 0.68 | 0.68 | 95 | 1009.5 |
| 20260507105230 | 66 | 202 | 0.0 | 0.0 | 0.00 | 0.68 | 0.68 | 95 | 1009.3 |
| 20260507104727 | 66 | 200 | 0.0 | 0.0 | 0.07 | 0.68 | 0.68 | 95 | 1009.2 |
| 20260507104224 | 66 | 215 | 0.0 | 0.0 | 0.07 | 0.68 | 0.68 | 95 | 1009.2 |
| 20260507103720 | 66 | 214 | 0.0 | 0.0 | 0.00 | 0.67 | 0.67 | 95 | 1009.3 |
| 20260507103217 | 66 | 216 | 0.0 | 0.0 | 0.12 | 0.67 | 0.67 | 95 | 1009.3 |
| 20260507102713 | 66 | 212 | 0.0 | 0.0 | 0.07 | 0.66 | 0.66 | 95 | 1009.5 |
| 20260507102210 | 66 | 199 | 0.0 | 0.0 | 0.00 | 0.65 | 0.65 | 95 | 1009.2 |
| 20260507101706 | 66 | 211 | 0.0 | 0.0 | 0.00 | 0.65 | 0.65 | 95 | 1009.0 |
| 20260507101201 | 66 | 211 | 0.0 | 0.0 | 0.00 | 0.65 | 0.65 | 95 | 1009.1 |
| 20260507100659 | 66 | 207 | 0.0 | 0.0 | 0.05 | 0.65 | 0.65 | 95 | 1009.3 |
| 20260507100157 | 66 | 209 | 0.0 | 0.0 | 0.05 | 0.65 | 0.65 | 95 | 1009.3 |
| 20260507095655 | 66 | 201 | 0.0 | 0.0 | 0.00 | 0.64 | 0.64 | 95 | 1008.9 |
| 20260507095151 | 66 | 201 | 0.0 | 0.0 | 0.07 | 0.64 | 0.64 | 95 | 1009.0 |
| 20260507094648 | 66 | 201 | 0.0 | 0.0 | 0.07 | 0.64 | 0.64 | 95 | 1008.8 |
| 20260507094144 | 66 | 203 | 0.0 | 0.0 | 0.00 | 0.63 | 0.63 | 95 | 1009.3 |
| 20260507093642 | 66 | 211 | 0.0 | 0.0 | 0.00 | 0.63 | 0.63 | 95 | 1009.1 |
| 20260507093141 | 66 | 210 | 0.0 | 0.0 | 0.05 | 0.63 | 0.63 | 95 | 1009.1 |
| 20260507092637 | 66 | 210 | 0.0 | 0.0 | 0.05 | 0.63 | 0.63 | 95 | 1008.9 |
| 20260507092133 | 66 | 209 | 0.0 | 0.0 | 0.00 | 0.62 | 0.62 | 95 | 1008.9 |
| 20260507091630 | 66 | 209 | 0.0 | 0.0 | 0.00 | 0.62 | 0.62 | 95 | 1009.0 |
| 20260507091126 | 66 | 209 | 0.0 | 0.0 | 0.00 | 0.62 | 0.62 | 95 | 1009.2 |
| 20260507090622 | 66 | 209 | 0.0 | 0.0 | 0.00 | 0.62 | 0.62 | 95 | 1009.1 |
| 20260507090119 | 66 | 207 | 0.0 | 0.0 | 0.00 | 0.62 | 0.62 | 95 | 1009.1 |
| 20260507085616 | 66 | 210 | 0.0 | 0.0 | 0.00 | 0.62 | 0.62 | 95 | 1009.2 |
| 20260507085113 | 66 | 210 | 0.0 | 0.0 | 0.12 | 0.62 | 0.62 | 95 | 1009.4 |
| 20260507084610 | 66 | 216 | 0.0 | 0.0 | 0.12 | 0.62 | 0.62 | 95 | 1009.5 |
| 20260507084106 | 66 | 200 | 0.0 | 0.0 | 0.24 | 0.60 | 0.60 | 95 | 1009.5 |
| 20260507083603 | 66 | 200 | 0.0 | 0.0 | 0.31 | 0.60 | 0.60 | 95 | 1009.6 |
| 20260507083100 | 66 | 200 | 0.0 | 0.0 | 0.38 | 0.60 | 0.60 | 95 | 1009.0 |
| 20260507082556 | 66 | 232 | 1.0 | 1.0 | 0.07 | 0.55 | 0.55 | 95 | 1009.7 |
| 20260507082052 | 66 | 202 | 0.0 | 0.0 | 0.00 | 0.54 | 0.54 | 95 | 1009.9 |
| 20260507081548 | 66 | 189 | 0.0 | 0.0 | 0.12 | 0.54 | 0.54 | 95 | 1009.8 |
| 20260507081046 | 65 | 205 | 0.0 | 0.0 | 0.12 | 0.54 | 0.54 | 95 | 1010.0 |
| 20260507080542 | 65 | 181 | 1.0 | 1.0 | 0.00 | 0.52 | 0.52 | 95 | 1009.7 |
| 20260507080038 | 65 | 207 | 0.0 | 0.0 | 0.05 | 0.52 | 0.52 | 95 | 1010.0 |
| 20260507075533 | 65 | 207 | 0.0 | 0.0 | 0.47 | 0.52 | 0.52 | 95 | 1009.6 |
| 20260507075030 | 65 | 183 | 3.0 | 3.0 | 0.42 | 0.51 | 0.51 | 95 | 1009.1 |
| 20260507074527 | 0 | 0.0 | 0.0 | 0.00 | 0.00 | 0.00 | 1009.7 | ||
| 20260507074026 | 0 | 0.0 | 0.0 | 0.00 | 0.00 | 0.00 | 1010.0 | ||
| 20260507073521 | 0 | 0.0 | 0.0 | 0.00 | 0.00 | 0.00 | 1010.0 | ||
| 20260507073018 | 0 | 0.0 | 0.0 | 0.00 | 0.00 | 0.00 | 1010.0 | ||
| 20260507072515 | 0 | 0.0 | 0.0 | 0.00 | 0.00 | 0.00 | 1010.1 | ||
| 20260507072012 | 65 | 210 | 0.0 | 0.0 | 0.00 | 0.44 | 0.44 | 95 | 1009.7 |
| 20260507071510 | 65 | 210 | 0.0 | 0.0 | 0.05 | 0.44 | 0.44 | 95 | 1009.9 |
| 20260507071006 | 65 | 210 | 0.0 | 0.0 | 0.05 | 0.44 | 0.44 | 95 | 1010.2 |
| 20260507070503 | 65 | 210 | 0.0 | 0.0 | 0.00 | 0.43 | 0.43 | 95 | 1010.4 |
| 20260507070000 | 65 | 211 | 0.0 | 0.0 | 0.00 | 0.43 | 0.43 | 95 | 1010.4 |
| 20260507065456 | 65 | 211 | 0.0 | 0.0 | 0.00 | 0.43 | 0.43 | 95 | 1010.6 |
| 20260507064954 | 65 | 211 | 0.0 | 0.0 | 0.00 | 0.43 | 0.43 | 95 | 1010.4 |
| 20260507064452 | 65 | 211 | 0.0 | 0.0 | 0.00 | 0.43 | 0.43 | 95 | 1010.5 |
| 20260507063950 | 65 | 211 | 0.0 | 0.0 | 0.00 | 0.43 | 0.43 | 95 | 1010.1 |
| 20260507063446 | 65 | 211 | 0.0 | 0.0 | 0.00 | 0.43 | 0.43 | 95 | 1010.5 |
| 20260507062943 | 65 | 211 | 0.0 | 0.0 | 0.00 | 0.43 | 0.43 | 95 | 1010.7 |
| 20260507062441 | 65 | 211 | 0.0 | 0.0 | 0.00 | 0.43 | 0.43 | 95 | 1010.7 |
| 20260507061938 | 65 | 211 | 0.0 | 0.0 | 0.00 | 0.43 | 0.43 | 95 | 1010.8 |
| 20260507061436 | 65 | 211 | 0.0 | 0.0 | 0.00 | 0.43 | 0.43 | 95 | 1011.1 |
| 20260507060934 | 65 | 211 | 0.0 | 0.0 | 0.00 | 0.43 | 0.43 | 95 | 1011.2 |
| 20260507060430 | 65 | 211 | 0.0 | 0.0 | 0.00 | 0.43 | 0.43 | 95 | 1011.2 |
| 20260507055927 | 65 | 210 | 0.0 | 0.0 | 0.00 | 0.43 | 0.43 | 95 | 1011.2 |
| 20260507055423 | 65 | 215 | 0.0 | 0.0 | 0.00 | 0.43 | 0.43 | 95 | 1011.0 |
| 20260507054920 | 65 | 209 | 0.0 | 0.0 | 0.00 | 0.43 | 0.43 | 95 | 1011.0 |